N8289A KSYR-KSYR

Flight info

Callsign N8289A
Flight time 0h 5m
Altitude 2500
Route DCT
Aircraft P28A/L-SDFGR/S

Departure

Time 2026-04-23 23:15
Airport Syracuse Hancock International Airport (KSYR)

Arrival

Time 2026-04-23 23:21
Airport Syracuse Hancock International Airport (KSYR)
Time Latitude Longitude Altitude Speed Heading
2026-04-23 22:56 43.10600 -76.11441 418 ft 0 kts 114°
2026-04-23 22:57 43.10600 -76.11442 418 ft 0 kts 114°
2026-04-23 23:04 43.10600 -76.11441 427 ft 0 kts 114°
2026-04-23 23:05 43.10602 -76.11433 418 ft 2 kts 31°
2026-04-23 23:05 43.10627 -76.11448 416 ft 6 kts 311°
2026-04-23 23:05 43.10654 -76.11510 417 ft 9 kts 279°
2026-04-23 23:06 43.10656 -76.11590 418 ft 8 kts 272°
2026-04-23 23:06 43.10656 -76.11601 418 ft 0 kts 273°
2026-04-23 23:06 43.10658 -76.11609 418 ft 4 kts 286°
2026-04-23 23:06 43.10698 -76.11669 418 ft 10 kts 321°
2026-04-23 23:07 43.10728 -76.11651 418 ft 9 kts 86°
2026-04-23 23:07 43.10732 -76.11549 418 ft 13 kts 85°
2026-04-23 23:07 43.10737 -76.11409 418 ft 16 kts 87°
2026-04-23 23:07 43.10701 -76.11299 418 ft 13 kts 167°
2026-04-23 23:08 43.10630 -76.11241 413 ft 14 kts 99°
2026-04-23 23:08 43.10632 -76.11109 418 ft 14 kts 87°
2026-04-23 23:08 43.10636 -76.10974 418 ft 15 kts 95°
2026-04-23 23:08 43.10643 -76.10832 415 ft 15 kts 85°
2026-04-23 23:09 43.10646 -76.10686 418 ft 16 kts 86°
2026-04-23 23:09 43.10652 -76.10537 418 ft 16 kts 87°
2026-04-23 23:09 43.10657 -76.10384 414 ft 16 kts 85°
2026-04-23 23:09 43.10662 -76.10228 418 ft 17 kts 86°
2026-04-23 23:10 43.10668 -76.10070 418 ft 17 kts 88°
2026-04-23 23:10 43.10673 -76.09910 418 ft 17 kts 88°
2026-04-23 23:10 43.10678 -76.09748 418 ft 17 kts 100°
2026-04-23 23:10 43.10682 -76.09589 418 ft 15 kts 85°
2026-04-23 23:11 43.10673 -76.09470 418 ft 13 kts 131°
2026-04-23 23:11 43.10636 -76.09371 419 ft 6 kts 69°
2026-04-23 23:11 43.10646 -76.09352 415 ft 0 kts 44°
2026-04-23 23:12 43.10646 -76.09351 415 ft 1 kts 45°
2026-04-23 23:12 43.10663 -76.09329 418 ft 5 kts 42°
2026-04-23 23:12 43.10695 -76.09290 418 ft 8 kts 39°
2026-04-23 23:12 43.10771 -76.09261 423 ft 15 kts
2026-04-23 23:13 43.10848 -76.09265 421 ft 0 kts 358°
2026-04-23 23:14 43.10856 -76.09266 421 ft 5 kts 354°
2026-04-23 23:14 43.10912 -76.09274 423 ft 9 kts 348°
2026-04-23 23:14 43.10926 -76.09359 422 ft 14 kts 268°
2026-04-23 23:14 43.10914 -76.09737 416 ft 67 kts 266°
2026-04-23 23:15 43.10897 -76.10467 571 ft 82 kts 273°
2026-04-23 23:15 43.10910 -76.11247 799 ft 84 kts 274°
2026-04-23 23:15 43.10904 -76.12047 1007 ft 81 kts 272°
2026-04-23 23:15 43.10846 -76.12809 1175 ft 85 kts 251°
2026-04-23 23:16 43.10380 -76.13315 1358 ft 94 kts 194°
2026-04-23 23:16 43.09711 -76.13215 1538 ft 97 kts 175°
2026-04-23 23:16 43.09053 -76.13011 1565 ft 98 kts 173°
2026-04-23 23:16 43.08371 -76.12805 1519 ft 105 kts 161°
2026-04-23 23:17 43.07965 -76.12030 1491 ft 104 kts 102°
2026-04-23 23:17 43.07880 -76.11058 1443 ft 101 kts 94°
2026-04-23 23:17 43.07851 -76.10093 1461 ft 100 kts 88°
2026-04-23 23:17 43.07839 -76.09131 1459 ft 101 kts 89°
2026-04-23 23:18 43.07846 -76.08159 1463 ft 103 kts 86°
2026-04-23 23:18 43.07843 -76.07186 1521 ft 100 kts 87°
2026-04-23 23:18 43.07939 -76.06269 1445 ft 100 kts 61°
2026-04-23 23:18 43.08389 -76.05630 1336 ft 89 kts 23°
2026-04-23 23:19 43.08976 -76.05513 1229 ft 83 kts 355°
2026-04-23 23:19 43.09536 -76.05515 1130 ft 78 kts 355°
2026-04-23 23:19 43.10062 -76.05536 1024 ft 77 kts 355°
2026-04-23 23:19 43.10578 -76.05703 843 ft 75 kts 326°
2026-04-23 23:20 43.10859 -76.06267 712 ft 71 kts 290°
2026-04-23 23:20 43.10943 -76.06912 644 ft 66 kts 280°
2026-04-23 23:20 43.10960 -76.07522 602 ft 63 kts 274°
2026-04-23 23:20 43.10951 -76.08132 560 ft 65 kts 271°
2026-04-23 23:21 43.10942 -76.08748 526 ft 65 kts 275°
2026-04-23 23:21 43.10923 -76.09363 447 ft 63 kts 275°
2026-04-23 23:21 43.10909 -76.09894 418 ft 47 kts 266°
2026-04-23 23:21 43.10893 -76.10429 421 ft 71 kts 267°
2026-04-23 23:22 43.10869 -76.11123 502 ft 76 kts 272°
2026-04-23 23:22 43.10848 -76.11888 620 ft 82 kts 272°
2026-04-23 23:22 43.10829 -76.12655 774 ft 80 kts 269°
2026-04-23 23:22 43.10804 -76.13429 924 ft 80 kts 269°
2026-04-23 23:23 43.10772 -76.14188 1127 ft 79 kts 269°
2026-04-23 23:23 43.10423 -76.14794 1285 ft 90 kts 206°
2026-04-23 23:23 43.09808 -76.14743 1507 ft 89 kts 174°
2026-04-23 23:23 43.09171 -76.14570 1509 ft 95 kts 172°
2026-04-23 23:24 43.08521 -76.14365 1523 ft 96 kts 172°
2026-04-23 23:24 43.07911 -76.13945 1534 ft 103 kts 137°
2026-04-23 23:24 43.07658 -76.13087 1529 ft 100 kts 86°
2026-04-23 23:24 43.07641 -76.12161 1580 ft 97 kts 86°
2026-04-23 23:25 43.07660 -76.11242 1573 ft 99 kts 83°
2026-04-23 23:25 43.07699 -76.10299 1559 ft 97 kts 79°
2026-04-23 23:25 43.07758 -76.09382 1501 ft 100 kts 82°
2026-04-23 23:25 43.07784 -76.08445 1498 ft 99 kts 85°
2026-04-23 23:26 43.07797 -76.07501 1484 ft 98 kts 88°
2026-04-23 23:26 43.07752 -76.06570 1514 ft 97 kts 88°
2026-04-23 23:26 43.07771 -76.05630 1397 ft 101 kts 77°
2026-04-23 23:26 43.08151 -76.04938 1294 ft 88 kts 21°
2026-04-23 23:27 43.08705 -76.04855 1118 ft 74 kts 358°
2026-04-23 23:27 43.09187 -76.04860 1053 ft 67 kts 354°
2026-04-23 23:27 43.09655 -76.04886 1062 ft 67 kts 352°
2026-04-23 23:27 43.10123 -76.04905 1047 ft 68 kts 353°
2026-04-23 23:28 43.10558 -76.05022 986 ft 67 kts 329°
2026-04-23 23:28 43.10866 -76.05488 913 ft 68 kts 301°
2026-04-23 23:28 43.10986 -76.06100 826 ft 65 kts 281°
2026-04-23 23:28 43.10992 -76.06724 719 ft 64 kts 272°
2026-04-23 23:29 43.10975 -76.07324 623 ft 63 kts 273°
2026-04-23 23:29 43.10961 -76.07710 614 ft 59 kts 274°
2026-04-23 23:29 43.10948 -76.08285 582 ft 62 kts 273°
2026-04-23 23:29 43.10932 -76.08880 535 ft 62 kts 276°
2026-04-23 23:30 43.10920 -76.09465 453 ft 59 kts 276°
2026-04-23 23:30 43.10910 -76.09947 418 ft 41 kts 269°
2026-04-23 23:30 43.10898 -76.10301 418 ft 33 kts 271°
2026-04-23 23:30 43.10888 -76.10535 420 ft 15 kts 250°
2026-04-23 23:31 43.10810 -76.10559 418 ft 13 kts 179°
2026-04-23 23:31 43.10781 -76.10556 418 ft 0 kts 176°
2026-04-23 23:32 43.10779 -76.10556 418 ft 2 kts 177°
2026-04-23 23:32 43.10725 -76.10550 418 ft 13 kts 175°
2026-04-23 23:32 43.10652 -76.10593 414 ft 13 kts 258°
2026-04-23 23:32 43.10646 -76.10747 418 ft 19 kts 267°
2026-04-23 23:33 43.10637 -76.10944 418 ft 23 kts 269°
2026-04-23 23:33 43.10631 -76.11173 418 ft 26 kts 269°
2026-04-23 23:33 43.10685 -76.11292 418 ft 17 kts 356°
2026-04-23 23:33 43.10737 -76.11390 418 ft 17 kts 265°
2026-04-23 23:34 43.10731 -76.11573 418 ft 21 kts 268°
2026-04-23 23:34 43.10708 -76.11689 418 ft 8 kts 170°
2026-04-23 23:34 43.10664 -76.11674 415 ft 5 kts 89°
2026-04-23 23:34 43.10666 -76.11670 414 ft 0 kts 15°
2026-04-23 23:35 43.10668 -76.11671 413 ft 0 kts 348°
2026-04-23 23:35 43.10670 -76.11672 418 ft 0 kts 349°